User: anonymous   Login
Location: Palmerston North
(40.3500°S, 175.6170°E)
Time: 23:25:29
(UTC+13:00)
Language:

COSMOS 2428 - Orbit

View from above orbital plane
View from above orbital plane
View from above satellite
View from above satellite

Ground track
Ground track

The orbit data is extracted from the following two-line orbital elements,

1 31792U 07029A   19077.62886467 -.00000326  00000-0 -15051-3 0  9999
2 31792  70.9555 151.4882 0008501  22.1345 338.0141 14.12529529604364
Epoch (UTC): 18 March 2019 15:05:33
Eccentricity: 0.0008501
inclination: 70.9555°
perigee height: 844 km
apogee height: 857 km
right ascension of ascending node: 151.4882°
argument of perigee: 22.1345°
revolutions per day: 14.12529529
mean anomaly at epoch: 338.0141°
orbit number at epoch: 60436

The dashed part of the orbit path shows where the satellite is in the earth's shadow,  

DLR